{"data":{"norad_id":59652,"intl_designator":"2024-082X","name":"STARLINK-31799","alt_names":[],"object_type":"PAYLOAD","status":"ACTIVE","operator":null,"country":"US","launch_date":"2024-05-03","launch_site_code":"AFETR","launch_vehicle":null,"mission":null,"orbit_class":"UNKNOWN","rcs_meters":null,"size_class":null,"mass_kg":null,"dimensions":null,"purposes":["comms"],"wikipedia_slug":null,"has_3d_model":false,"image_url":null,"decayed_at":null,"tle_current":{"epoch":"2026-09-21T06:02:17.858976Z","epoch_age_seconds":103232,"freshness":"FRESH","line1":"1 59652U 24082X   26264.25159559 -.00000072  00000+0  69096-5 0  9998","line2":"2 59652  42.9897 104.7115 0001163 266.7714  93.3005 15.27578639134899","mean_motion":15.27578639,"eccentricity":0.0001163,"inclination_deg":42.9897,"raan_deg":104.7115,"arg_perigee_deg":266.7714,"mean_anomaly_deg":93.3005,"bstar":6.9096e-6,"rev_number":13489,"period_min":94.266832700847,"perigee_km":482.25521494937,"apogee_km":483.85112778323,"semimajor_km":6861.1901713663,"source":"CELESTRAK","updated_at":"2026-09-22T09:00:49.023547Z"}}}